| time (UTC) | temp F | wind direction | speed MPH | gust MPH | rain 1hr in | rain 24hr in | rain mn in | humidity % | barometer mb |
| 20260506160659 | 95 | 0 | 0.0 | 0.0 | 0.00 | 0.00 | 0.00 | 48 | 974.0 |
| 20260506160519 | 95 | 0 | 0.0 | 0.0 | 0.00 | 0.00 | 0.00 | 47 | 974.0 |
| 20260506155454 | 95 | 0 | 0.0 | 0.0 | 0.00 | 0.00 | 0.00 | 46 | 974.0 |
| 20260506154428 | 95 | 0 | 0.0 | 0.0 | 0.00 | 0.00 | 0.00 | 46 | 974.0 |
| 20260506153403 | 96 | 0 | 0.0 | 0.0 | 0.00 | 0.00 | 0.00 | 46 | 974.0 |
| 20260506152338 | 96 | 0 | 0.0 | 0.0 | 0.00 | 0.00 | 0.00 | 45 | 973.0 |
| 20260506151312 | 97 | 0 | 0.0 | 0.0 | 0.00 | 0.00 | 0.00 | 45 | 974.0 |
| 20260506150246 | 96 | 0 | 0.0 | 0.0 | 0.00 | 0.00 | 0.00 | 45 | 974.0 |
| 20260506145221 | 95 | 0 | 0.0 | 0.0 | 0.00 | 0.00 | 0.00 | 47 | 973.0 |
| 20260506144156 | 95 | 0 | 0.0 | 0.0 | 0.00 | 0.00 | 0.00 | 48 | 973.0 |
| 20260506143131 | 95 | 0 | 0.0 | 0.0 | 0.00 | 0.00 | 0.00 | 50 | 973.0 |
| 20260506142106 | 96 | 0 | 0.0 | 0.0 | 0.00 | 0.00 | 0.00 | 50 | 973.0 |
| 20260506141039 | 96 | 0 | 0.0 | 0.0 | 0.00 | 0.00 | 0.00 | 49 | 973.0 |
| 20260506140015 | 97 | 0 | 0.0 | 0.0 | 0.00 | 0.00 | 0.00 | 46 | 973.0 |
| 20260506134950 | 99 | 0 | 0.0 | 0.0 | 0.00 | 0.00 | 0.00 | 42 | 972.0 |
| 20260506133924 | 99 | 0 | 0.0 | 0.0 | 0.00 | 0.00 | 0.00 | 42 | 972.0 |
| 20260506132900 | 99 | 0 | 0.0 | 0.0 | 0.00 | 0.00 | 0.00 | 42 | 971.0 |
| 20260506131835 | 99 | 0 | 0.0 | 0.0 | 0.00 | 0.00 | 0.00 | 43 | 971.0 |
| 20260506130809 | 100 | 0 | 0.0 | 0.0 | 0.00 | 0.00 | 0.00 | 41 | 971.0 |
| 20260506125744 | 100 | 0 | 0.0 | 0.0 | 0.00 | 0.00 | 0.00 | 41 | 971.0 |
| 20260506124719 | 101 | 0 | 0.0 | 0.0 | 0.00 | 0.00 | 0.00 | 40 | 971.0 |
| 20260506123653 | 100 | 0 | 0.0 | 0.0 | 0.00 | 0.00 | 0.00 | 41 | 971.0 |
| 20260506122628 | 101 | 0 | 0.0 | 0.0 | 0.00 | 0.00 | 0.00 | 42 | 971.0 |
| 20260506121603 | 101 | 0 | 0.0 | 0.0 | 0.00 | 0.00 | 0.00 | 44 | 971.0 |
| 20260506120538 | 102 | 0 | 0.0 | 0.0 | 0.00 | 0.00 | 0.00 | 42 | 971.0 |
| 20260506115513 | 102 | 0 | 0.0 | 0.0 | 0.00 | 0.00 | 0.00 | 43 | 971.0 |
| 20260506114447 | 103 | 0 | 0.0 | 0.0 | 0.00 | 0.00 | 0.00 | 42 | 970.0 |
| 20260506113421 | 102 | 0 | 0.0 | 0.0 | 0.00 | 0.00 | 0.00 | 42 | 970.0 |
| 20260506112356 | 103 | 0 | 0.0 | 0.0 | 0.00 | 0.00 | 0.00 | 41 | 970.0 |
| 20260506111332 | 103 | 0 | 0.0 | 0.0 | 0.00 | 0.00 | 0.00 | 41 | 970.0 |
| 20260506110307 | 102 | 0 | 0.0 | 0.0 | 0.00 | 0.00 | 0.00 | 41 | 970.0 |
| 20260506105242 | 104 | 0 | 0.0 | 0.0 | 0.00 | 0.00 | 0.00 | 41 | 970.0 |
| 20260506104217 | 103 | 0 | 0.0 | 0.0 | 0.00 | 0.00 | 0.00 | 41 | 970.0 |
| 20260506103151 | 103 | 0 | 0.0 | 0.0 | 0.00 | 0.00 | 0.00 | 41 | 970.0 |
| 20260506102126 | 102 | 0 | 0.0 | 0.0 | 0.00 | 0.00 | 0.00 | 41 | 970.0 |
| 20260506101101 | 102 | 0 | 0.0 | 0.0 | 0.00 | 0.00 | 0.00 | 41 | 970.0 |
| 20260506100036 | 101 | 0 | 0.0 | 0.0 | 0.00 | 0.00 | 0.00 | 42 | 970.0 |
| 20260506095011 | 100 | 0 | 0.0 | 0.0 | 0.00 | 0.00 | 0.00 | 43 | 970.0 |
| 20260506093946 | 98 | 0 | 0.0 | 0.0 | 0.00 | 0.00 | 0.00 | 47 | 970.0 |
| 20260506092921 | 100 | 0 | 0.0 | 0.0 | 0.00 | 0.00 | 0.00 | 44 | 970.0 |
| 20260506091856 | 101 | 0 | 0.0 | 0.0 | 0.00 | 0.00 | 0.00 | 43 | 970.0 |
| 20260506090831 | 100 | 0 | 0.0 | 0.0 | 0.00 | 0.00 | 0.00 | 45 | 970.0 |
| 20260506085805 | 100 | 0 | 0.0 | 0.0 | 0.00 | 0.00 | 0.00 | 44 | 970.0 |
| 20260506084740 | 99 | 0 | 0.0 | 0.0 | 0.00 | 0.00 | 0.00 | 46 | 971.0 |
| 20260506083715 | 100 | 0 | 0.0 | 0.0 | 0.00 | 0.00 | 0.00 | 42 | 971.0 |
| 20260506082650 | 100 | 0 | 0.0 | 0.0 | 0.00 | 0.00 | 0.00 | 42 | 971.0 |
| 20260506081626 | 100 | 0 | 0.0 | 0.0 | 0.00 | 0.00 | 0.00 | 43 | 971.0 |
| 20260506080602 | 103 | 0 | 0.0 | 0.0 | 0.00 | 0.00 | 0.00 | 40 | 971.0 |
| 20260506073445 | 102 | 0 | 0.0 | 0.0 | 0.00 | 0.00 | 0.00 | 43 | 971.0 |
| 20260506072419 | 100 | 0 | 0.0 | 0.0 | 0.00 | 0.00 | 0.00 | 44 | 971.0 |
| 20260506071354 | 102 | 0 | 0.0 | 0.0 | 0.00 | 0.00 | 0.00 | 41 | 972.0 |
| 20260506070329 | 105 | 0 | 0.0 | 0.0 | 0.00 | 0.00 | 0.00 | 34 | 972.0 |
| 20260506062149 | 109 | 0 | 0.0 | 0.0 | 0.00 | 0.00 | 0.00 | 32 | 973.0 |
| 20260506061124 | 108 | 0 | 0.0 | 0.0 | 0.00 | 0.00 | 0.00 | 33 | 973.0 |
| 20260506050851 | 106 | 0 | 0.0 | 0.0 | 0.00 | 0.00 | 0.00 | 35 | 974.0 |
| 20260506044800 | 106 | 0 | 0.0 | 0.0 | 0.00 | 0.00 | 0.00 | 35 | 974.0 |
| 20260506043734 | 105 | 0 | 0.0 | 0.0 | 0.00 | 0.00 | 0.00 | 36 | 974.0 |
| 20260506042710 | 105 | 0 | 0.0 | 0.0 | 0.00 | 0.00 | 0.00 | 36 | 975.0 |
| 20260506041643 | 105 | 0 | 0.0 | 0.0 | 0.00 | 0.00 | 0.00 | 37 | 975.0 |
| 20260506040617 | 103 | 0 | 0.0 | 0.0 | 0.00 | 0.00 | 0.00 | 38 | 975.0 |
| 20260506035551 | 103 | 0 | 0.0 | 0.0 | 0.00 | 0.00 | 0.00 | 39 | 975.0 |
| 20260506034526 | 102 | 0 | 0.0 | 0.0 | 0.00 | 0.00 | 0.00 | 40 | 975.0 |
| 20260506033502 | 100 | 0 | 0.0 | 0.0 | 0.00 | 0.00 | 0.00 | 42 | 975.0 |
| 20260506032436 | 99 | 0 | 0.0 | 0.0 | 0.00 | 0.00 | 0.00 | 43 | 975.0 |
| 20260506031411 | 99 | 0 | 0.0 | 0.0 | 0.00 | 0.00 | 0.00 | 43 | 975.0 |
| 20260506030345 | 98 | 0 | 0.0 | 0.0 | 0.00 | 0.00 | 0.00 | 44 | 976.0 |
| 20260506025319 | 97 | 0 | 0.0 | 0.0 | 0.00 | 0.00 | 0.00 | 46 | 976.0 |
| 20260506024254 | 97 | 0 | 0.0 | 0.0 | 0.00 | 0.00 | 0.00 | 46 | 976.0 |
| 20260506023228 | 96 | 0 | 0.0 | 0.0 | 0.00 | 0.00 | 0.00 | 47 | 976.0 |
| 20260506022201 | 95 | 0 | 0.0 | 0.0 | 0.00 | 0.00 | 0.00 | 49 | 976.0 |
| 20260506021136 | 95 | 0 | 0.0 | 0.0 | 0.00 | 0.00 | 0.00 | 49 | 976.0 |
| 20260506020110 | 93 | 0 | 0.0 | 0.0 | 0.00 | 0.00 | 0.00 | 51 | 976.0 |
| 20260506015045 | 93 | 0 | 0.0 | 0.0 | 0.00 | 0.00 | 0.00 | 53 | 976.0 |
| 20260506014019 | 92 | 0 | 0.0 | 0.0 | 0.00 | 0.00 | 0.00 | 54 | 976.0 |
| 20260506012953 | 92 | 0 | 0.0 | 0.0 | 0.00 | 0.00 | 0.00 | 54 | 976.0 |
| 20260506011928 | 91 | 0 | 0.0 | 0.0 | 0.00 | 0.00 | 0.00 | 57 | 976.0 |
| 20260506010903 | 90 | 0 | 0.0 | 0.0 | 0.00 | 0.00 | 0.00 | 58 | 976.0 |
| 20260506005839 | 90 | 0 | 0.0 | 0.0 | 0.00 | 0.00 | 0.00 | 59 | 976.0 |
| 20260506004812 | 89 | 0 | 0.0 | 0.0 | 0.00 | 0.00 | 0.00 | 61 | 975.0 |
| 20260506003747 | 87 | 0 | 0.0 | 0.0 | 0.00 | 0.00 | 0.00 | 64 | 975.0 |
| 20260506002722 | 88 | 0 | 0.0 | 0.0 | 0.00 | 0.00 | 0.00 | 62 | 975.0 |
| 20260506001655 | 89 | 0 | 0.0 | 0.0 | 0.00 | 0.00 | 0.00 | 61 | 975.0 |
| 20260506000630 | 88 | 0 | 0.0 | 0.0 | 0.00 | 0.00 | 0.00 | 62 | 975.0 |
| 20260505235605 | 87 | 0 | 0.0 | 0.0 | 0.00 | 0.00 | 0.00 | 65 | 975.0 |
| 20260505234539 | 86 | 0 | 0.0 | 0.0 | 0.00 | 0.00 | 0.00 | 65 | 975.0 |
| 20260505233513 | 88 | 0 | 0.0 | 0.0 | 0.00 | 0.00 | 0.00 | 62 | 975.0 |
| 20260505232448 | 88 | 0 | 0.0 | 0.0 | 0.00 | 0.00 | 0.00 | 63 | 975.0 |
| 20260505231423 | 88 | 0 | 0.0 | 0.0 | 0.00 | 0.00 | 0.00 | 62 | 975.0 |
| 20260505230358 | 87 | 0 | 0.0 | 0.0 | 0.00 | 0.00 | 0.00 | 65 | 975.0 |
| 20260505225331 | 87 | 0 | 0.0 | 0.0 | 0.00 | 0.00 | 0.00 | 64 | 975.0 |
| 20260505224306 | 87 | 0 | 0.0 | 0.0 | 0.00 | 0.00 | 0.00 | 63 | 974.0 |
| 20260505221549 | 88 | 0 | 0.0 | 0.0 | 0.00 | 0.00 | 0.00 | 63 | 974.0 |
| 20260505220521 | 87 | 0 | 0.0 | 0.0 | 0.00 | 0.00 | 0.00 | 63 | 974.0 |
| 20260505215457 | 88 | 0 | 0.0 | 0.0 | 0.00 | 0.00 | 0.00 | 61 | 974.0 |
| 20260505214429 | 90 | 0 | 0.0 | 0.0 | 0.00 | 0.00 | 0.00 | 59 | 974.0 |
| 20260505212514 | 87 | 0 | 0.0 | 0.0 | 0.00 | 0.00 | 0.00 | 63 | 974.0 |
| 20260505211449 | 88 | 0 | 0.0 | 0.0 | 0.00 | 0.00 | 0.00 | 62 | 974.0 |
| 20260505210423 | 88 | 0 | 0.0 | 0.0 | 0.00 | 0.00 | 0.00 | 62 | 974.0 |
| 20260505205358 | 89 | 0 | 0.0 | 0.0 | 0.00 | 0.00 | 0.00 | 60 | 974.0 |
| 20260505204333 | 88 | 0 | 0.0 | 0.0 | 0.00 | 0.00 | 0.00 | 62 | 974.0 |
| 20260505203308 | 88 | 0 | 0.0 | 0.0 | 0.00 | 0.00 | 0.00 | 63 | 974.0 |
| 20260505202243 | 89 | 0 | 0.0 | 0.0 | 0.00 | 0.00 | 0.00 | 61 | 974.0 |
| 20260505201218 | 89 | 0 | 0.0 | 0.0 | 0.00 | 0.00 | 0.00 | 60 | 974.0 |
| 20260505200153 | 88 | 0 | 0.0 | 0.0 | 0.00 | 0.00 | 0.00 | 61 | 974.0 |
| 20260505195128 | 91 | 0 | 0.0 | 0.0 | 0.00 | 0.00 | 0.00 | 57 | 974.0 |
| 20260505194103 | 91 | 0 | 0.0 | 0.0 | 0.00 | 0.00 | 0.00 | 57 | 974.0 |
| 20260505193038 | 91 | 0 | 0.0 | 0.0 | 0.00 | 0.00 | 0.00 | 58 | 974.0 |
| 20260505192012 | 92 | 0 | 0.0 | 0.0 | 0.00 | 0.00 | 0.00 | 56 | 974.0 |
| 20260505190946 | 91 | 0 | 0.0 | 0.0 | 0.00 | 0.00 | 0.00 | 58 | 974.0 |
| 20260505185920 | 91 | 0 | 0.0 | 0.0 | 0.00 | 0.00 | 0.00 | 57 | 974.0 |
| 20260505184853 | 92 | 0 | 0.0 | 0.0 | 0.00 | 0.00 | 0.00 | 56 | 974.0 |
| 20260505183416 | 90 | 0 | 0.0 | 0.0 | 0.00 | 0.00 | 0.00 | 58 | 974.0 |
| 20260505182351 | 92 | 0 | 0.0 | 0.0 | 0.00 | 0.00 | 0.00 | 56 | 974.0 |
| 20260505181325 | 92 | 0 | 0.0 | 0.0 | 0.00 | 0.00 | 0.00 | 56 | 975.0 |
| 20260505180300 | 93 | 0 | 0.0 | 0.0 | 0.00 | 0.00 | 0.00 | 54 | 975.0 |
| 20260505175235 | 92 | 0 | 0.0 | 0.0 | 0.00 | 0.00 | 0.00 | 55 | 975.0 |
| 20260505174209 | 92 | 0 | 0.0 | 0.0 | 0.00 | 0.00 | 0.00 | 54 | 975.0 |
| 20260505173143 | 93 | 0 | 0.0 | 0.0 | 0.00 | 0.00 | 0.00 | 52 | 975.0 |
| 20260505172119 | 93 | 0 | 0.0 | 0.0 | 0.00 | 0.00 | 0.00 | 52 | 975.0 |
| 20260505171053 | 93 | 0 | 0.0 | 0.0 | 0.00 | 0.00 | 0.00 | 51 | 975.0 |
| 20260505170026 | 92 | 0 | 0.0 | 0.0 | 0.00 | 0.00 | 0.00 | 53 | 975.0 |
| 20260505164631 | 93 | 0 | 0.0 | 0.0 | 0.00 | 0.00 | 0.00 | 51 | 975.0 |
| 20260505163606 | 95 | 0 | 0.0 | 0.0 | 0.00 | 0.00 | 0.00 | 49 | 975.0 |
| 20260505162541 | 95 | 0 | 0.0 | 0.0 | 0.00 | 0.00 | 0.00 | 48 | 975.0 |
| 20260505161516 | 96 | 0 | 0.0 | 0.0 | 0.00 | 0.00 | 0.00 | 47 | 976.0 |